Flag for United Kingdom Weather past 2 weeks in Telford, England, United Kingdom

Now
61 °F

Drizzle. Broken clouds.


Feels Like: 61 °F
Forecast: 52 / 67 °F
Wind: 12 mph from Southeast

Location: Shawbury

Current Time: Aug 2, 2014 at 8:31:03 AM

Latest Report: Aug 2, 2014 at 7:50 AM


Visibility: 3 mi

Pressure: 29.53 "Hg

Humidity: 94%

Dew point: 59 °F

Location of TelfordLocation

Historic Weather in Telford — Graph

°F

Telford temperature yesterday

Maximum temperature yesterday: 68 °F (at 1:50 PM)
Minimum temperature yesterday: 59 °F (at 1:50 AM)
Average temperature yesterday: 63 °F

Past Weeks' High & Low Weather Summary

 TemperatureHumidityPressure
High81 °F (Jul 18, 2:50 PM)100% (Jul 19, 4:50 AM)30.24 "Hg (Jul 19, 4:50 AM)
Low48 °F (Jul 29, 4:50 AM)32% (Jul 24, 4:50 PM)29.56 "Hg (Aug 2, 5:50 AM)
Average65 °F74%29.98 "Hg
* Reported Jul 18 6:50 AM — Aug 2 6:50 AM, Telford, Weather by CustomWeather, © 2014

Note: Actual official high and low records may vary slightly from our data, if they occured in-between our weather recording intervals... More about our weather records

Advertising

Telford weather history for previous 24 hours

 ConditionsComfort  
Time TempWeatherWind HumidityBarometerVisibility
6:50 AM
Aug 2
61 °FPartly sunny.9 mph94%29.56 "Hg4 mi
5:50 AM59 °FFog.8 mph94%29.56 "Hg4 mi
4:50 AM59 °FFog.7 mph100%29.59 "Hg3 mi
3:50 AM59 °FFog.5 mph100%29.59 "Hg4 mi
2:50 AM59 °FRain. Passing clouds.5 mph100%29.62 "Hg3 mi
1:50 AM59 °FLight rain. Passing clouds.3 mph100%29.65 "Hg3 mi
12:50 AM61 °FLight rain. Overcast.5 mph94%29.65 "Hg3 mi
11:50 PM
Aug 1
61 °FLight rain. Overcast.7 mph94%29.65 "Hg3 mi
10:50 PM61 °FSprinkles. Passing clouds.6 mph94%29.68 "Hg4 mi
9:50 PM61 °FScattered clouds.3 mph94%29.68 "HgN/A
8:50 PM61 °FPartly sunny.2 mph94%29.68 "HgN/A
7:50 PM61 °FLight rain. Broken clouds.6 mph94%29.68 "HgN/A
6:50 PM63 °FLight rain. Broken clouds.6 mph83%29.68 "HgN/A
5:50 PM66 °FScattered clouds.12 mph73%29.68 "HgN/A
4:50 PM68 °FPartly sunny.13 mph64%29.68 "HgN/A
3:50 PM68 °FBroken clouds.13 mph69%29.68 "HgN/A
2:50 PM68 °FBroken clouds.15 mph69%29.68 "HgN/A
1:50 PM68 °FBroken clouds.13 mph73%29.68 "HgN/A
12:50 PM66 °FLight rain. Broken clouds.12 mph83%29.71 "Hg6 mi
12:22 PM64 °FPartly sunny.13 mph88%29.71 "Hg5 mi
11:50 AM64 °FLight rain. Broken clouds.12 mph88%29.71 "Hg4 mi
10:50 AM63 °FRain. Mostly cloudy.9 mph94%29.74 "Hg3 mi
9:50 AM61 °FRain. Mostly cloudy.9 mph94%29.74 "Hg3 mi
8:50 AM63 °FLight rain. More clouds than sun.10 mph83%29.74 "Hg4 mi
Weather by CustomWeather, © 2014

See weather overviewHow to use our weather pages